Home > Weather > Wallisellen > Past weeks

Flag for Switzerland Weather for the Past 2 Weeks in Wallisellen, Zurich, Switzerland

Now
46 °F

Cool.


Feels Like: 46 °F
Forecast: 36 / 56 °F
Wind: 1 mph from West

Location: Zuerich-Fluntern

Current Time: May 3, 2016 at 2:07:56 AM

Latest Report: May 3, 2016 at 1:00 AM


Visibility: N/A

Pressure: 30.18 "Hg

Humidity: 90%

Dew Point: 43 °F

Location of WallisellenLocation

Historic Weather in Wallisellen — Graph

°F

Wallisellen Temperature Yesterday

Maximum temperature yesterday: 56 °F (at 5:00 PM)
Minimum temperature yesterday: 41 °F (at 2:00 AM)
Average temperature yesterday: 47 °F

High & Low Weather Summary for the Past Weeks

 TemperatureHumidityPressure
High69 °F (Apr 21, 5:00 PM)98% (Apr 18, 11:00 AM)30.33 "Hg (Apr 18, 11:00 AM)
Low31 °F (Apr 28, 7:00 AM)35% (Apr 28, 3:00 PM)29.69 "Hg (Apr 26, 6:00 PM)
Average47 °F72%30.03 "Hg
* Reported Apr 18 3:00 AM — Midnight between May 2 and May 3, Wallisellen, Weather by CustomWeather, © 2016

Note: Actual official high and low records may vary slightly from our data, if they occured in-between our weather recording intervals... More about our weather records

Advertising

Wallisellen Weather History for the Previous 24 Hours

Scroll right to see more
 ConditionsComfort  
Time TempWeatherWind HumidityBarometerVisibility
12:00 AM
Tue, May 3
46 °FCool.No wind92%30.18 "HgN/A
11:00 PM
Mon, May 2
47 °FCool.No wind91%30.17 "HgN/A
10:00 PM48 °FCool.No wind87%30.16 "HgN/A
9:00 PM50 °FCool.1 mph85%30.15 "HgN/A
8:00 PM53 °FPartly sunny.3 mph76%30.13 "HgN/A
7:00 PM53 °FCool.5 mph75%30.13 "HgN/A
6:00 PM56 °FCool.7 mph66%30.12 "HgN/A
5:00 PM56 °FCool.3 mph64%30.13 "HgN/A
4:00 PM56 °FCool.3 mph65%30.14 "HgN/A
3:00 PM56 °FCool.6 mph66%30.15 "HgN/A
2:00 PM55 °FPartly sunny.5 mph72%30.17 "HgN/A
1:00 PM51 °FCool.5 mph79%30.19 "HgN/A
12:00 PM48 °FCool.5 mph85%30.21 "HgN/A
11:00 AM47 °FCool.1 mph91%30.22 "HgN/A
10:00 AM44 °FQuite cool.1 mph96%30.24 "HgN/A
9:00 AM42 °FQuite cool.2 mph97%30.24 "HgN/A
8:00 AM42 °FOvercast.1 mph96%30.24 "HgN/A
6:00 AM41 °FQuite cool.1 mph96%30.23 "HgN/A
5:00 AM41 °FQuite cool.3 mph96%30.22 "HgN/A
4:00 AM41 °FQuite cool.2 mph96%30.23 "HgN/A
3:00 AM41 °FQuite cool.2 mph96%30.23 "HgN/A
2:00 AM41 °FQuite cool.2 mph96%30.23 "HgN/A
Weather by CustomWeather, © 2016

See weather overviewHow to use our weather pages